• In Romania
  • List of Countries
  • For 7 days
  • Water Temperature
  • Satellite Maps
  • Weather Map
  • Weather Widgets
  • user-avatar
    Login

    Hourly Weather Krivopavlovka

    Today, 25 June, Monday

    Time Temperature Precipitation Wind Pressure Humidity
    00:00 +24°C° 0 mm 2 mps 756 mmHg 61%
    01:00 +23°C° 0 mm 2 mps 756 mmHg 64%
    02:00 +22°C° 0 mm 1 mps 756 mmHg 67%
    03:00 +22°C° 0 mm 1 mps 756 mmHg 71%
    04:00 +22°C° 0 mm 1 mps 757 mmHg 71%
    05:00 +23°C° 0 mm 1 mps 757 mmHg 70%
    06:00 +24°C° 0 mm 1 mps 757 mmHg 70%
    07:00 +26°C° 0 mm 1 mps 757 mmHg 65%
    08:00 +27°C° 0 mm 1 mps 758 mmHg 60%
    09:00 +29°C° 0 mm 1 mps 758 mmHg 56%
    10:00 +30°C° 0 mm 1 mps 758 mmHg 51%
    11:00 +32°C° 0 mm 1 mps 758 mmHg 47%
    12:00 +33°C° 0 mm 1 mps 758 mmHg 43%
    13:00 +33°C° 0 mm 1 mps 758 mmHg 41%
    14:00 +34°C° 0 mm 1 mps 758 mmHg 38%
    15:00 +34°C° 0 mm 1 mps 758 mmHg 36%
    16:00 +34°C° 0 mm 1 mps 758 mmHg 40%
    17:00 +34°C° 0 mm 2 mps 758 mmHg 45%
    18:00 +32°C° 0 mm 2 mps 758 mmHg 49%
    19:00 +30°C° 0 mm 2 mps 758 mmHg 57%
    20:00 +28°C° 0 mm 3 mps 758 mmHg 65%
    21:00 +26°C° 0 mm 3 mps 758 mmHg 73%
    22:00 +25°C° 0.1 mm 3 mps 758 mmHg 76%
    23:00 +24°C° 0.1 mm 3 mps 759 mmHg 79%

    Tomorrow, 26 June, Tuesday

    Time Temperature Precipitation Wind Pressure Humidity
    00:00 +24°C° 0.1 mm 3 mps 759 mmHg 82%
    01:00 +22°C° 0.4 mm 3 mps 759 mmHg 84%
    02:00 +22°C° 0.4 mm 3 mps 759 mmHg 87%
    03:00 +21°C° 0.4 mm 3 mps 759 mmHg 89%
    04:00 +23°C° 0 mm 2 mps 759 mmHg 86%
    05:00 +24°C° 0 mm 2 mps 759 mmHg 83%
    06:00 +25°C° 0 mm 2 mps 759 mmHg 80%
    07:00 +26°C° 0 mm 2 mps 759 mmHg 72%
    08:00 +28°C° 0 mm 2 mps 759 mmHg 65%
    09:00 +30°C° 0 mm 2 mps 759 mmHg 58%
    10:00 +31°C° 0 mm 2 mps 759 mmHg 53%
    11:00 +32°C° 0 mm 2 mps 759 mmHg 49%
    12:00 +34°C° 0 mm 2 mps 759 mmHg 44%
    13:00 +35°C° 0 mm 2 mps 758 mmHg 43%
    14:00 +35°C° 0 mm 2 mps 758 mmHg 41%
    15:00 +36°C° 0 mm 2 mps 758 mmHg 40%
    16:00 +35°C° 0 mm 2 mps 758 mmHg 44%
    17:00 +34°C° 0 mm 2 mps 758 mmHg 48%
    18:00 +34°C° 0 mm 2 mps 758 mmHg 52%
    19:00 +31°C° 0 mm 2 mps 758 mmHg 56%
    20:00 +29°C° 0 mm 2 mps 758 mmHg 60%
    21:00 +28°C° 0 mm 2 mps 759 mmHg 63%
    22:00 +27°C° 1 mm 3 mps 759 mmHg 69%
    23:00 +26°C° 1 mm 3 mps 759 mmHg 74%

    Day after tomorrow, 27 June, Wednesday

    Time Temperature Precipitation Wind Pressure Humidity
    00:00 +25°C° 1 mm 3 mps 759 mmHg 80%
    01:00 +24°C° 0.9 mm 3 mps 759 mmHg 82%
    02:00 +24°C° 0.9 mm 3 mps 759 mmHg 84%
    03:00 +22°C° 0.9 mm 3 mps 759 mmHg 86%
    04:00 +24°C° 0 mm 2 mps 759 mmHg 84%
    05:00 +24°C° 0 mm 2 mps 759 mmHg 82%
    06:00 +25°C° 0 mm 2 mps 759 mmHg 80%
    07:00 +26°C° 0.1 mm 2 mps 759 mmHg 74%
    08:00 +28°C° 0.1 mm 2 mps 759 mmHg 68%
    09:00 +30°C° 0.1 mm 3 mps 759 mmHg 61%
    10:00 +30°C° 0.5 mm 3 mps 759 mmHg 58%
    11:00 +31°C° 0.5 mm 3 mps 759 mmHg 55%
    12:00 +33°C° 0.5 mm 3 mps 759 mmHg 52%
    13:00 +33°C° 0.4 mm 3 mps 758 mmHg 52%
    14:00 +33°C° 0.4 mm 3 mps 758 mmHg 53%
    15:00 +33°C° 0.4 mm 3 mps 758 mmHg 54%
    16:00 +31°C° 0.2 mm 3 mps 758 mmHg 58%
    17:00 +31°C° 0.2 mm 3 mps 758 mmHg 62%
    18:00 +30°C° 0.2 mm 3 mps 758 mmHg 66%
    19:00 +29°C° 0.5 mm 3 mps 758 mmHg 71%
    20:00 +27°C° 0.5 mm 3 mps 758 mmHg 77%
    21:00 +25°C° 0.5 mm 3 mps 758 mmHg 83%
    22:00 +25°C° 0 mm 3 mps 758 mmHg 84%
    23:00 +24°C° 0 mm 3 mps 758 mmHg 86%

    28 June, Thursday

    Time Temperature Precipitation Wind Pressure Humidity
    00:00 +24°C° 0 mm 3 mps 758 mmHg 88%
    01:00 +22°C° 0 mm 3 mps 759 mmHg 88%
    02:00 +22°C° 0 mm 3 mps 759 mmHg 89%
    03:00 +21°C° 0 mm 3 mps 759 mmHg 90%
    04:00 +22°C° 0 mm 3 mps 759 mmHg 87%
    05:00 +22°C° 0 mm 3 mps 759 mmHg 83%
    06:00 +23°C° 0 mm 4 mps 759 mmHg 80%
    07:00 +25°C° 0 mm 4 mps 759 mmHg 74%
    08:00 +27°C° 0 mm 4 mps 759 mmHg 69%
    09:00 +28°C° 0 mm 5 mps 759 mmHg 64%
    10:00 +29°C° 0 mm 5 mps 759 mmHg 60%
    11:00 +30°C° 0 mm 5 mps 758 mmHg 57%
    12:00 +30°C° 0 mm 5 mps 758 mmHg 53%
    13:00 +30°C° 0 mm 5 mps 758 mmHg 52%
    14:00 +30°C° 0 mm 5 mps 758 mmHg 51%
    15:00 +30°C° 0 mm 5 mps 758 mmHg 50%
    16:00 +30°C° 0 mm 5 mps 758 mmHg 53%
    17:00 +29°C° 0 mm 4 mps 758 mmHg 56%
    18:00 +28°C° 0 mm 4 mps 758 mmHg 60%
    19:00 +27°C° 0 mm 3 mps 758 mmHg 63%
    20:00 +25°C° 0 mm 3 mps 758 mmHg 66%
    21:00 +22°C° 0 mm 3 mps 758 mmHg 69%
    22:00 +21°C° 0 mm 3 mps 758 mmHg 72%
    23:00 +21°C° 0 mm 3 mps 758 mmHg 74%

    29 June, Friday

    Time Temperature Precipitation Wind Pressure Humidity
    00:00 +20°C° 0 mm 3 mps 758 mmHg 77%
    01:00 +19°C° 0 mm 3 mps 758 mmHg 77%
    02:00 +19°C° 0 mm 3 mps 758 mmHg 78%
    03:00 +18°C° 0 mm 3 mps 758 mmHg 79%
    04:00 +19°C° 0 mm 3 mps 758 mmHg 76%
    05:00 +20°C° 0 mm 3 mps 757 mmHg 74%
    06:00 +21°C° 0 mm 3 mps 757 mmHg 72%
    07:00 +22°C° 0 mm 3 mps 757 mmHg 66%
    08:00 +25°C° 0 mm 4 mps 757 mmHg 60%
    09:00 +27°C° 0 mm 4 mps 757 mmHg 55%
    10:00 +27°C° 0 mm 3 mps 757 mmHg 51%
    11:00 +28°C° 0 mm 3 mps 756 mmHg 46%
    12:00 +29°C° 0 mm 3 mps 756 mmHg 42%
    13:00 +30°C° 0 mm 2 mps 756 mmHg 41%
    14:00 +30°C° 0 mm 2 mps 756 mmHg 40%
    15:00 +30°C° 0 mm 2 mps 755 mmHg 39%
    16:00 +30°C° 0 mm 2 mps 755 mmHg 42%
    17:00 +30°C° 0 mm 2 mps 755 mmHg 46%
    18:00 +29°C° 0 mm 2 mps 755 mmHg 50%
    19:00 +27°C° 0 mm 2 mps 755 mmHg 53%
    20:00 +25°C° 0 mm 2 mps 755 mmHg 56%
    21:00 +23°C° 0 mm 2 mps 755 mmHg 59%
    22:00 +23°C° 0 mm 2 mps 755 mmHg 61%
    23:00 +21°C° 0 mm 2 mps 755 mmHg 62%

    30 June, Saturday

    Time Temperature Precipitation Wind Pressure Humidity
    00:00 +20°C° 0 mm 2 mps 754 mmHg 63%
    01:00 +20°C° 0 mm 2 mps 754 mmHg 66%
    02:00 +19°C° 0 mm 2 mps 754 mmHg 68%
    03:00 +19°C° 0 mm 2 mps 754 mmHg 70%
    04:00 +20°C° 0 mm 2 mps 754 mmHg 71%
    05:00 +20°C° 0 mm 2 mps 754 mmHg 72%
    06:00 +21°C° 0 mm 2 mps 754 mmHg 73%
    07:00 +24°C° 0 mm 3 mps 754 mmHg 67%
    08:00 +26°C° 0 mm 3 mps 754 mmHg 62%
    09:00 +28°C° 0 mm 4 mps 754 mmHg 56%
    10:00 +29°C° 0 mm 4 mps 754 mmHg 52%
    11:00 +30°C° 0 mm 4 mps 753 mmHg 47%
    12:00 +33°C° 0 mm 5 mps 753 mmHg 43%
    13:00 +33°C° 0 mm 5 mps 753 mmHg 42%
    14:00 +34°C° 0 mm 5 mps 752 mmHg 41%
    15:00 +34°C° 0 mm 5 mps 752 mmHg 41%
    16:00 +34°C° 0 mm 4 mps 752 mmHg 44%
    17:00 +33°C° 0 mm 4 mps 751 mmHg 47%
    18:00 +33°C° 0 mm 4 mps 751 mmHg 51%
    19:00 +30°C° 0 mm 5 mps 751 mmHg 51%
    20:00 +29°C° 0 mm 5 mps 750 mmHg 50%
    21:00 +28°C° 0 mm 6 mps 750 mmHg 50%
    22:00 +27°C° 0.6 mm 6 mps 750 mmHg 53%
    23:00 +26°C° 0.6 mm 5 mps 750 mmHg 56%
    Show more